Preview of NWS' New Version of Forecast
This preview is not operational and should not be used for support decisions.
Latest weather observations around

Topeka, Forbes Field (KFOE)

Using English Units (Switch to International System of Units)
Date/ Time (CDT) Wind (mph) Vis. (mi) Weather Sky Cond. Temp (°F) Rel. Humidity Wind Chill (°F) Heat Index (°F) Pressure Precip. (in)
Air Dwpt 6 hour Altimeter (inHg) Sea level (inHg) 1 hr 3 hr 6 hr
Max Min
Mar 25 04:53 N 8 7 Cloudy OVC008 48 43     83% 44     30.16      
Mar 25 03:53 N 7 7 Cloudy OVC008 48 44     86% 45     30.15      
Mar 25 02:53 N 9 8 Cloudy OVC008 48 44     86% 44     30.15      
Mar 25 02:22 N 14 6 Fog/Mist BKN009 BKN013 OVC022 48 44     86% 42            
Mar 25 01:53 NNW 13 7 Cloudy SCT009 OVC022 49 44     83% 44     30.14      
Mar 25 00:53 NNW 16 6 Fog/Mist OVC009 49 45     86% 43     30.13      
Mar 24 23:53 NNW 14 9 Cloudy OVC013 50 45     83%       30.12      
Mar 24 23:49 NNW 11 9 Cloudy OVC013 50 45     82%              
Mar 24 22:53 NNW 13 8 Cloudy SCT012 OVC028 50 45     83%       30.11      
Mar 24 21:53 N 11 7 Cloudy BKN012 OVC036 52 47     83%       30.09      
Mar 24 21:30 N 7 7 Cloudy FEW011 SCT017 OVC036 52 47     83%              
Mar 24 20:53 NNW 14 8 Cloudy BKN017 BKN023 OVC030 53 47     80%       30.07      
Mar 24 20:40 N 8 10 Cloudy BKN017 BKN023 OVC035 54 46     74%              
Mar 24 19:53 NNW 10 10 Cloudy SCT021 OVC037 54 46     74%       30.04      
Mar 24 18:53 NNW 11 10 Cloudy FEW024 BKN037 OVC050 56 46     69%       30.02      
Mar 24 17:53 NW 14 10 Cloudy FEW024 BKN044 OVC055 57 46     67%       29.99      
Mar 24 16:53 WNW 10 10 Cloudy OVC034 57 45     64%       29.98      
Mar 24 15:53 W 10 10 Cloudy BKN038 OVC045 58 45     62%       29.96      
Mar 24 15:16 WNW 14 10 Cloudy SCT027 OVC036 56 45     67%              
Mar 24 15:03 WNW 9 10 Cloudy BKN027 OVC034 56 44     64%              
Mar 24 14:53 WNW 13 10 Cloudy OVC030 55 44     66%       29.96      
Mar 24 14:45 WNW 14 10 Cloudy BKN030 OVC034 56 44     64%              
Mar 24 13:53 NW 14 10 Cloudy OVC028 55 44     66%       29.96      
Mar 24 12:53 WNW 10 10 Cloudy BKN025 OVC029 54 44     69%       29.96      
Mar 24 11:53 W 14 10 Cloudy OVC021 53 44     71%       29.96      
Mar 24 10:53 W 13 10 Cloudy SCT016 OVC023 53 45     74%       29.96      
Mar 24 10:35 W 13 10 Cloudy OVC015 50 44     80%              
Mar 24 09:53 W 13 10 Cloudy OVC014 49 43     80% 44     29.96      
Mar 24 09:30 W 14 10 Cloudy OVC014 49 43     80% 44            
Mar 24 09:08 W 18 10 Mostly Cloudy BKN017 50 44     80%              
Mar 24 08:53 W 16 10 Mostly Clear FEW017 50 44     80%       29.95      
Mar 24 08:22 WSW 10 6 Fog/Mist SCT008 50 47     89%              
Mar 24 07:53 SW 8 5 Fog/Mist BKN008 OVC014 50 47     89%       29.93      
Mar 24 07:43 SSW 9 4 Fog/Mist BKN008 OVC014 50 47     89%              
Mar 24 07:31 SSW 8 4 Fog/Mist SCT006 OVC016 49 47     93% 45            
Mar 24 06:53 SSW 10 7 Cloudy BKN006 OVC014 50 48     93%       29.93     0
Mar 24 05:53 SSE 9 5 Fog/Mist SCT005 OVC010 49 47     93% 45     29.92      
Mar 24 05:21 SSE 6 6 Fog/Mist BKN008 OVC012 49 47     93% 46            
Mar 24 04:53 S 5 7 Cloudy OVC010 49 46     90% 47     29.93      
Mar 24 04:15 SSE 8 7 Cloudy BKN012 BKN070 OVC100 48 46     93% 44            
Mar 24 03:53 SSE 9 8 Cloudy FEW010 BKN075 OVC100 49 46     90% 45     29.93 0 0  
Mar 24 03:44 SSE 11 6 Light Rain and Fog/Mist SCT011 BKN034 OVC044 49 46     90% 44       0    
Mar 24 02:53 SSE 10 9 Light Rain OVC012 50 45     83%       29.95 0    
Mar 24 02:16 SSE 8 10 Cloudy OVC014 50 45     83%              
Mar 24 01:53 S 7 10 Cloudy FEW015 OVC029 50 45     83%       29.96      
Mar 24 01:43 S 8 10 Cloudy BKN026 OVC085 51 45     79%              
Mar 24 00:53 SSE 17 10 Mostly Cloudy SCT030 BKN100 50 45     83%       29.95      
Mar 24 00:25 SSE 18 10 Cloudy OVC030 51 46     83%              
Mar 23 23:53 SSE 21 10 Cloudy and Windy OVC028 52 46     80%       29.97      
Mar 23 23:10 SSE 17 10 Cloudy SCT016 OVC024 52 46     80%              
Mar 23 22:53 SSE 20 10 Cloudy and Windy BKN014 OVC022 52 47     83%       29.97      
Mar 23 21:53 SSE 16 9 Cloudy BKN010 OVC014 51 47     86%       29.98      
Mar 23 21:17 SSE 13 5 Fog/Mist OVC010 51 48     89%              
Mar 23 21:01 SSE 17 5 Fog/Mist BKN009 OVC014 52 48     86%              
Mar 23 20:53 SSE 18 7 Cloudy OVC011 52 48     86%       29.99      
Mar 23 20:36 SSE 14 6 Fog/Mist BKN011 OVC016 52 48     86%              
Mar 23 19:53   10 Cloudy BKN021 BKN026 OVC031 54 47     77%       29.98      
Mar 23 19:28 SSE 16 10 Cloudy OVC029 55 47     74%              
Mar 23 19:18 SSE 16 10 Cloudy SCT024 OVC031 55 47     74%              
Mar 23 18:53 SSE 10 10 Cloudy BKN024 OVC030 55 47     74%       29.98      
Mar 23 17:53 S 13 10 Cloudy BKN028 OVC033 56 46     69%       29.98      
Mar 23 16:53 S 16 10 Cloudy OVC029 57 46     67%       29.98      
Mar 23 16:00 SSE 15 10 Cloudy OVC031 58 46     65%              
Mar 23 15:53 S 17 10 Cloudy BKN029 OVC035 58 46     65%       29.99      
Mar 23 15:19 S 17 10 Cloudy OVC030 58 46     65%              
Mar 23 14:53 SSE 13 10 Cloudy OVC027 56 46     69%       30      
Mar 23 13:53 SSE 15 10 Cloudy BKN025 OVC034 56 46     69%       30.03      
Mar 23 13:49 SSE 13 10 Cloudy BKN025 BKN034 OVC045 55 45     67%              
Mar 23 12:53 SSE 13 10 Mostly Cloudy BKN046 53 44     71%       30.04     0
Mar 23 11:53 ESE 9 10 Cloudy SCT070 OVC090 50 42     74%       30.03 0    
Mar 23 10:53 ESE 11 10 Clear   48 40     73% 43     30.04 0    
Mar 23 09:53 SSE 11 8 Light Rain OVC070 49 37     63% 44     30.08 0 0  
Mar 23 08:53 ESE 11 10 Light Rain FEW060 SCT070 OVC090 50 32     50%       30.03 0    
Mar 23 07:53 ESE 11 10 Mostly Cloudy BKN110 50 31     48%       30.05      
Mar 23 05:53 E 8 10 Cloudy BKN090 OVC100 50 31     48%       30.06      
Mar 23 04:53 E 9 10 Clear CLR 51 31     46%       30.06 0    
Mar 23 03:53 ESE 5 10 Mostly Cloudy SCT090 BKN110 51 32     48%       30.09      
Mar 23 02:53 SE 5 10 Cloudy OVC095 52 32     46%       30.1      
Mar 23 01:53 ESE 6 10 Mostly Clear FEW100 52 34     50%       30.1      
Mar 23 00:53 ESE 8 10 Cloudy OVC110 53 35     50%       30.09      
Mar 22 23:53 E 9 10 Clear CLR 54 34     47%       30.08      
Mar 22 22:53 E 7 10 Clear CLR 53 34     48%       30.08      
Mar 22 21:53 E 7 10 Clear CLR 53 33     46%       30.09      
Mar 22 20:53 ESE 6 10 Clear CLR 56 32     40%       30.1      
Mar 22 19:53 E 5 10 Clear CLR 58 33     39%       30.09      
Mar 22 18:53 E 6 10 Clear CLR 62 33     34%       30.09      
Mar 22 17:53 ENE 7 10 Clear CLR 65 33     30%       30.1      
Mar 22 16:53   10 Clear CLR 67 30     25%       30.11      
Mar 22 15:53 3 10 Clear CLR 66 30     26%       30.14      
Mar 22 14:53 NNE 3 10 Clear CLR 65 29     26%       30.15      
Mar 22 13:53 Calm 10 Clear CLR 63 31     30%       30.18      
Mar 22 11:53 Calm 10 Clear CLR 61 32     33%       30.22      
Mar 22 10:53 Calm 10 Clear CLR 55 34     45%       30.23      
Mar 22 08:53 Calm 10 Clear CLR 40 33     76%       30.21      
Mar 22 07:53 Calm 10 Clear CLR 31 27     85%       30.2      
Mar 22 05:53 W 6 10 Clear CLR 30 25     81% 24     30.19      
Mar 22 04:53 Calm 10 Clear CLR 31 27     85%       30.16      
May 15 08:53 NW 7 10 Clear CLR 71 65     81%   72 29.99 29.97      
May 14 12:53 N 5 10 Partly Cloudy SCT031 84 68     59%   87 29.92 29.88      
May 14 08:53 SSW 14 10 Clear CLR 78 67     69%   79 29.91 29.88      
May 14 05:53 S 7 10 Clear CLR 72 65     79%   73 29.88 29.85      
May 13 09:53 S 14 10 Clear CLR 79 68     69%   80 29.93 29.9      
Notice The following observation data may not be complete
May 13 07:53 ESE 5 10 Clear CLR   66      %     29.95 29.92      
May 12 21:53 S 10 10 Clear CLR 78 69     74%   79 29.88 29.85      
May 12 09:53 S 14 10 Clear CLR 78 65     64%   79 29.86 29.83      
May 11 22:53 S 14 10 Clear CLR 78 62     58%   78 29.79 29.75      
Jun 11 01:53   10 Clear CLR 77 66     69%   78 29.78 29.74      
Jun 09 22:53 SSE 7 10 Clear CLR 73 62     68%   73 29.82 29.78      
Jun 09 09:53 SSW 11 10 Clear CLR 78 61     56%   78 29.93 29.9      
Jun 08 06:53 S 7 10 Clear CLR 57 54     89%     30.07 30.04      
Jun 07 09:53 5 10 Clear CLR 76 53     45%   75 30.13 30.1      
Jun 05 17:53 N 5 10 Clear CLR 90 62     40%   90 29.82 29.79